If you wish to contribute or participate in the discussions about articles you are invited to join SKYbrary as a registered user

 Actions

Arar Domestic Airport

From SKYbrary Wiki

OERR /
Revision as of 17:08, 17 September 2014 by Anonymous (talk) (Description)
Airport
ICAO: OERR
Summary
Name Arar Domestic Airport
Region Middle East
Territory Saudi Arabia SA.gif
Location Arar Domestic Airport
Serving
Coordinates 30° 54' 23.00" N, 41° 8' 17.00" E
Runways
Designator Length Width Surface ROPS
10/28 3050 m10,006.562 ft
45 m147.638 ft
ASP yes/yes


METAR
Observation OERR 290439Z 26005KT 5000 BR NSC 09/07 Q1020 NOSIG
Station Arar
Date/Time 29 November 2020 04:39:00
Wind direction 260°
Wind speed 05 kts
Lowest cloud amount nil significant cloud
Temperature 9°C
Dew point 7°C
Humidity 87%
QNH 1020 hPa
Weather condition n/a

Airport
ICAO: OERR
Summary
Name Arar Domestic Airport
Region "RAE" is not in the list (AFI, APAC, CARSAM, EUR, MID, NAM, NAT) of allowed values for the "ICAO Region" property.
Territory Saudi Arabia SA.gif
Location Arar Domestic Airport
Serving
Coordinates
Runways
Designator Length Width Surface ROPS
10/28 3050 m10,006.562 ft
45 m147.638 ft
ASP yes/yes
10/28 3050 m10,006.562 ft
45 m147.638 ft
ASP yes/yes


METAR
Observation OERR 290439Z 26005KT 5000 BR NSC 09/07 Q1020 NOSIG
Station Arar
Date/Time 29 November 2020 04:39:00
Wind direction 260°
Wind speed 05 kts
Lowest cloud amount nil significant cloud
Temperature 9°C
Dew point 7°C
Humidity 87%
QNH 1020 hPa
Weather condition n/a

Arar Domestic Airport

ICAO: OERR IATA: RAE

Description

Arar Domestic Airport is located 10 km5.4 nm
10,000 m
32,808.399 ft
south of Arar, Saudi Arabia.

Climatology

Hot Desert Climate (Köppen climate classification BWh) - Hot desert climates are typically found in the subtropics where there is unbroken sunshine for the whole year due to the stable descending air and high pressure, little or no precipitation. Maximum temperatures of 40°C to 45°C are not uncommon, particularly during the warmer months of the year. During colder periods of the year, night-time temperatures can drop to freezing or below due to the exceptional radiation loss under the clear skies. However, very rarely do temperatures drop far below freezing.

Maps

Terrain

Loading map...

Airport Layout

Loading map...


Accidents & Serious Incidents at or in vicinity of OERR

None on SKYbrary